Погода в Сарани

Казахстан     49°48′04″N   72°49′44″E
В апреле 2022 года жителям России запретили посещать сайт meteo.paraplan.net по решению Генеральной прокуратуры. Аудитория сайта уменьшилась в 10 раз. Владельцы сайта не видят смысла в поддержке погодного сервера в таких условиях. Сайт будет закрыт в октябре.
темп.,
°C
ветер,
м/с
пор.,
м/с
влажн.,
%
обл.,
%
осадки,
мм/ч
давл.,
гПа
погр.,
м
4 октября, вт
вт400:00+1всв510410 0.0 1031206
03:00−1всв49530 0.0 1032164
06:00−2всв49590 0.0 1033148
09:00+2всв610440 0.0 1033346
12:00+9всв78260 0.0 1033944
15:00+12всв67180 0.0 10321292
18:00+10св68220 0.0 1033317
21:00+4св59350 0.0 1036138
5 октября, ср
ср500:00+2в46450 0.0 103770
03:00+1всв33510 0.0 103739
06:000всв33545 0.0 103826
09:00+4всв34425 0.0 1039186
12:00+11всв34216 0.0 1037632
15:00+14св441610 0.0 1035939
18:00+13св34255 0.0 103565
21:00+8всв44280 0.0 103646
6 октября, чт
чт600:00+6в33345 0.0 103621
03:00+5вюв33385 0.0 103617
06:00+5всв33426 0.0 103619
09:00+8в2337100 0.0 1035127
12:00+15в333064 0.0 1033598
15:00+18всв322998 0.0 1030995
18:00+15в3336100 0.0 102927
21:00+12в44455 0.0 103039
7 октября, пт
пт700:00+10вюв33505 0.0 103028
03:00+8вюв22555 0.0 102910
06:00+8ююв225739 0.0 102810
09:00+12ююз344648 0.0 1027142
12:00+19ююз443035 0.0 1025881
15:00+21ююз342456 0.0 10231610
18:00+18ююз332892 0.0 102114
21:00+14ю4436100 0.0 102131
8 октября, сб
сб800:00+13ю4940100 0.0 1020139
03:00+12ю4945100 0.0 1019138
06:00+11ю41049100 0.0 1018168
09:00+13ююз61242100 0.0 1017426
12:00+19юз8102998 0.0 10151187
15:00+21зюз911235 0.0 10132146
18:00+16зсз811175 0.0 1014600
21:00+11зсз613421 0.0 1016431